Weather History for EHEH - March, 2013

Change the Weather History Date:

Thursday, March 7, 2013

  Actual Average Record
Temperature  
Mean Temperature 53 °F -  
Max Temperature 60 °F 52 °F 60 °F (1997)
Min Temperature 46 °F 36 °F 26 °F (2006)
Degree Days  
Heating Degree Days 12    
Growing Degree Days 3 (Base 50)    
Moisture  
Dew Point 39 °F    
Average Humidity 61    
Maximum Humidity 87    
Minimum Humidity 38    
Precipitation  
Precipitation 0.02 in - - ()
Sea Level Pressure  
Sea Level Pressure 29.48 in    
Wind  
Wind Speed 5 mph ()    
Max Wind Speed 8 mph    
Max Gust Speed -    
Visibility 6.3 miles    
Events Rain    
Averages and records for this station are not official NWS values.
T = Trace of Precipitation, MM = Missing Value Source: Averaged Metar Reports

Daily Weather History Graph

Daily Weather History Graph

Search for Another Location

Airport or City:

Trip Planner

Search our weather history database for the weather conditions in past years. The results will help you decide how hot, cold, wet, or windy it might be!

Date:

Astronomy

Mar. 07, 2013 Rise Set
Actual Time 7:10 AM CET 6:29 PM CET
Civil Twilight 6:37 AM CET 7:02 PM CET
Nautical Twilight 5:58 AM CET 7:41 PM CET
Astronomical Twilight 5:19 AM CET 8:20 PM CET
Moon 4:24 AM CET (3/7) 1:34 PM CET (3/7)
Length of Visible Light 12h 25m
Length of Day
11h 19m
Waning Crescent, 22% of the Moon is Illuminated
Mar 7
Waning Crescent
Mar 11
New
Mar 19
First Quarter
Mar 27
Full
Apr 3
Last Quarter

Hourly Weather History & Observations

Time (CET) Temp. Windchill Dew Point Humidity Pressure Visibility Wind Dir Wind Speed Gust Speed Precip Events Conditions
12:25 AM 50.0 °F - 33.8 °F 54% 29.53 in 6.2 mi ENE 6.9 mph - N/A   Mostly Cloudy
12:55 AM 50.0 °F - 33.8 °F 54% 29.53 in 6.2 mi ENE 6.9 mph - N/A   Overcast
1:00 AM 50 °F - 34 °F 43%  in 11 mi ENE 6.7 mph - -   Partly Cloudy
1:25 AM 50.0 °F - 33.8 °F 54% 29.53 in 6.2 mi East 4.6 mph - N/A   Overcast
1:55 AM 50.0 °F - 35.6 °F 58% 29.53 in 6.2 mi ENE 5.8 mph - N/A   Overcast
2:25 AM 50.0 °F - 35.6 °F 58% 29.53 in 6.2 mi ENE 6.9 mph - N/A   Overcast
2:55 AM 48.2 °F - 35.6 °F 62% 29.50 in 6.2 mi ENE 4.6 mph - N/A   Overcast
3:25 AM 48.2 °F - 35.6 °F 62% 29.50 in 6.2 mi ENE 6.9 mph - N/A   Mostly Cloudy
3:55 AM 48.2 °F - 35.6 °F 62% 29.50 in 6.2 mi ENE 5.8 mph - N/A   Overcast
4:00 AM 48 °F - 35 °F 51% 29.51 in 9 mi ENE 6.7 mph - -   Overcast
4:25 AM 48.2 °F - 35.6 °F 62% 29.50 in 6.2 mi East 4.6 mph - N/A   Mostly Cloudy
4:55 AM 48.2 °F - 35.6 °F 62% 29.50 in 6.2 mi East 4.6 mph - N/A   Overcast
5:25 AM 48.2 °F - 35.6 °F 62% 29.50 in 6.2 mi East 4.6 mph - N/A   Overcast
5:55 AM 48.2 °F - 35.6 °F 62% 29.47 in 6.2 mi ENE 4.6 mph - N/A   Mostly Cloudy
6:25 AM 46.4 °F 45.2 °F 35.6 °F 66% 29.47 in 6.2 mi East 3.5 mph - N/A   Overcast
6:55 AM 46.4 °F - 35.6 °F 66% 29.50 in 6.2 mi East 2.3 mph - N/A   Mostly Cloudy
7:00 AM 47 °F - 35 °F 53% 29.51 in 8 mi East 2.2 mph - -   Partly Cloudy
7:25 AM 46.4 °F 45.2 °F 35.6 °F 66% 29.50 in 6.2 mi ENE 3.5 mph - N/A   Overcast
7:55 AM 46.4 °F 42.9 °F 35.6 °F 66% 29.50 in 6.2 mi ENE 6.9 mph - N/A   Overcast
8:25 AM 46.4 °F 45.2 °F 35.6 °F 66% 29.50 in 6.2 mi East 3.5 mph - N/A   Overcast
8:55 AM 48.2 °F - 35.6 °F 62% 29.50 in 6.2 mi East 5.8 mph - N/A   Overcast
9:25 AM 48.2 °F - 35.6 °F 62% 29.50 in 6.2 mi ESE 4.6 mph - N/A   Overcast
9:55 AM 48.2 °F - 35.6 °F 62% 29.50 in 6.2 mi ESE 5.8 mph - N/A   Overcast
10:00 AM 49 °F - 35 °F 48% 29.52 in 9 mi ESE 4.5 mph - -   Overcast
10:25 AM 50.0 °F - 35.6 °F 58% 29.50 in 6.2 mi East 4.6 mph - N/A   Overcast
10:55 AM 51.8 °F - 35.6 °F 54% 29.50 in 6.2 mi ESE 3.5 mph - N/A   Overcast
11:25 AM 51.8 °F - 35.6 °F 54% 29.50 in 6.2 mi ESE 4.6 mph - N/A   Overcast
11:55 AM 53.6 °F - 35.6 °F 51% 29.50 in 6.2 mi ESE 4.6 mph - N/A   Overcast
12:25 PM 55.4 °F - 37.4 °F 51% 29.50 in 6.2 mi ESE 3.5 mph - N/A   Mostly Cloudy
12:55 PM 57.2 °F - 37.4 °F 48% 29.47 in 6.2 mi ENE 4.6 mph - N/A   Mostly Cloudy
1:00 PM 57 °F - 38 °F 38% 29.50 in 8 mi East 4.5 mph - -   Partly Cloudy
1:25 PM 57.2 °F - 39.2 °F 51% 29.47 in 6.2 mi ESE 3.5 mph - N/A   Mostly Cloudy
1:55 PM 59.0 °F - 41.0 °F 51% 29.47 in 6.2 mi East 3.5 mph - N/A   Overcast
2:25 PM 60.8 °F - 41.0 °F 48% 29.47 in 6.2 mi East 5.8 mph - N/A   Overcast
2:55 PM 59.0 °F - 42.8 °F 55% 29.44 in 6.2 mi SE 5.8 mph - N/A   Overcast
3:25 PM 59.0 °F - 44.6 °F 59% 29.44 in 6.2 mi South 5.8 mph - N/A   Overcast
3:55 PM 59.0 °F - 42.8 °F 55% 29.44 in 6.2 mi South 4.6 mph - N/A   Mostly Cloudy
4:00 PM 59 °F - 44 °F 45% 29.47 in 15 mi South 4.5 mph - -   Overcast
4:25 PM 59.0 °F - 42.8 °F 55% 29.44 in 6.2 mi South 5.8 mph - N/A   Overcast
4:55 PM 57.2 °F - 44.6 °F 63% 29.44 in 6.2 mi South 3.5 mph - N/A   Overcast
5:25 PM 57.2 °F - 42.8 °F 59% 29.44 in 6.2 mi ESE 4.6 mph - N/A   Overcast
5:55 PM 57.2 °F - 44.6 °F 63% 29.44 in 6.2 mi ESE 5.8 mph - N/A   Overcast
6:25 PM 57.2 °F - 42.8 °F 59% 29.44 in 6.2 mi East 4.6 mph - N/A   Overcast
6:55 PM 55.4 °F - 42.8 °F 63% 29.47 in 6.2 mi East 5.8 mph - N/A Rain Light Rain
7:00 PM 55 °F - 43 °F 53% 29.49 in 8 mi East 6.7 mph - - Rain Light Rain Showers
7:25 PM 53.6 °F - 42.8 °F 67% 29.47 in 6.2 mi East 6.9 mph - N/A Rain Light Rain
7:55 PM 51.8 °F - 42.8 °F 71% 29.47 in 5.0 mi East 8.1 mph - N/A Rain Light Rain
8:25 PM 51.8 °F - 42.8 °F 71% 29.47 in 5.0 mi East 8.1 mph - N/A Rain Light Rain
8:55 PM 51.8 °F - 42.8 °F 71% 29.47 in 5.0 mi East 5.8 mph - N/A Rain Light Rain
9:25 PM 50.0 °F - 42.8 °F 76% 29.47 in 5.0 mi East 6.9 mph - N/A Rain Light Rain
9:55 PM 50.0 °F - 44.6 °F 82% 29.47 in 4.3 mi ENE 8.1 mph - N/A   Haze
10:00 PM 49 °F - 44 °F 78% 29.49 in 4 mi ENE 6.7 mph - - Rain Rain
10:25 PM 48.2 °F - 44.6 °F 87% 29.47 in 3.7 mi East 4.6 mph - N/A Rain Light Rain
10:55 PM 48.2 °F - 44.6 °F 87% 29.47 in 4.3 mi East 5.8 mph - N/A   Light Drizzle
11:10 PM 48.2 °F - 44.6 °F 87% 29.47 in 3.7 mi East 5.8 mph - N/A   Light Drizzle
11:25 PM 50.0 °F - 44.6 °F 82% 29.47 in 4.3 mi ESE 3.5 mph - N/A   Overcast
11:55 PM 50.0 °F - 44.6 °F 82% 29.47 in 4.3 mi ESE 3.5 mph - N/A   Overcast